Location: Nairn
(57.5833°N, 3.8667°W)
Time: 03:05:55
(UTC+00:00)

BlueWalker 3 - Visible Passes

Search period start: 07 December 2022 00:00
Search period end: 17 December 2022 00:00
Orbit: 501 x 518 km, 53.2° (Epoch: 06 December)

Date Brightness Start Highest point End Pass type
(mag) Time Alt. Az. Time Alt. Az. Time Alt. Az.
07 Dec 3.4 17:42:32 10° W 17:46:06 34° SSW 17:49:06 13° SE visible
07 Dec 4.6 19:21:50 10° WSW 19:23:58 14° SW 19:23:58 14° SW visible
08 Dec 3.5 17:24:08 10° W 17:27:41 33° SSW 17:31:12 10° SE visible
08 Dec 4.6 19:03:30 10° WSW 19:05:31 14° SW 19:06:42 12° SSW visible
09 Dec 3.6 17:05:43 10° W 17:09:15 32° SSW 17:12:45 10° SE visible
09 Dec 4.8 18:45:11 10° WSW 18:47:04 13° SW 18:48:57 10° S visible
10 Dec 3.8 16:47:18 10° W 16:50:49 32° SSW 16:54:18 10° SE visible
10 Dec 4.9 18:26:53 10° WSW 18:28:37 13° SW 18:30:20 10° SSW visible
11 Dec 3.9 16:28:53 10° W 16:32:22 31° SSW 16:35:51 10° SE visible
11 Dec 5.0 18:08:34 10° WSW 18:10:09 12° SW 18:11:43 10° SSW visible
12 Dec 5.1 17:50:18 10° WSW 17:51:41 12° SW 17:53:04 10° SSW visible
13 Dec 5.3 17:32:04 10° WSW 17:33:13 11° SW 17:34:22 10° SSW visible
14 Dec 5.5 17:13:53 10° SW 17:14:45 11° SW 17:15:35 10° SSW visible
15 Dec 5.8 16:55:56 10° SW 16:56:15 10° SW 16:56:34 10° SW visible
